Overview Statistics Trail Chart Weather Telemetry Raw packets
 

This is the latest recevied weather packets stored in our database for station/object HS5XHC-1. If no packets are shown the sender has not sent any weather packets the latest 10 day(s).

<< 29 30 31 32 33 34 35 >>
Time Temp. Humidity Pressure Rain* Wind** Luminosity Snow
1777445258 28.33° C 50% 967 hPa - - 0 W/m² -
1777444634 28.33° C 50% 967 hPa - - 0 W/m² -
1777444010 28.89° C 49% 967 hPa - - 0 W/m² -
1777443386 27.78° C 51% 968 hPa - - 0 W/m² -
1777442762 27.78° C 51% 968 hPa - - 0 W/m² -
1777442138 27.78° C 50% 968 hPa - - 0 W/m² -
1777441514 27.78° C 49% 968 hPa - - 0 W/m² -
1777440891 27.78° C 50% 969 hPa - - 0 W/m² -
1777440266 27.78° C 50% 969 hPa - - 0 W/m² -
1777439643 27.78° C 50% 969 hPa - - 0 W/m² -
1777439018 27.22° C 51% 969 hPa - - 0 W/m² -
1777438394 27.22° C 51% 969 hPa - - 0 W/m² -
1777437771 27.22° C 51% 969 hPa - - 0 W/m² -
1777437147 26.67° C 51% 969 hPa - - 0 W/m² -
1777436522 26.67° C 52% 969 hPa - - 0 W/m² -
1777435899 26.67° C 52% 969 hPa - - 0 W/m² -
1777435274 26.11° C 54% 969 hPa - - 0 W/m² -
1777434650 26.11° C 54% 969 hPa - - 0 W/m² -
1777434026 26.67° C 54% 969 hPa - - 0 W/m² -
1777433402 26.67° C 56% 969 hPa - - 0 W/m² -
1777432778 25.56° C 60% 969 hPa - - 0 W/m² -
1777432155 25° C 60% 969 hPa - - 0 W/m² -
1777431531 25.56° C 58% 969 hPa - - 0 W/m² -
1777430907 25.56° C 58% 970 hPa - - 0 W/m² -
1777430257 25.56° C 58% 969 hPa - - 0 W/m² -

* Rain since midnight (hover to see other rain measurements)
** Current wind speed in m/s (hover to see current wind gust speed)